Date,TemperatureHighF,TemperatureAvgF,TemperatureLowF,DewpointHighF,DewpointAvgF,DewpointLowF,HumidityHigh,HumidityAvg,HumidityLow,PressureMaxIn,PressureMinIn,WindSpeedMaxMPH,WindSpeedAvgMPH,GustSpeedMaxMPH,PrecipitationSumIn
2013-1-1,2,0,0,100,78,-7,76,74,71,30.38,30.18,4,0,4,0.00
2013-1-6,0,0,0,0,0,0,0,0,100,29.76,29.35,0,0,0,0.00
2013-1-12,15,10,4,8,3,-2,78,74,68,30.16,29.80,22,5,22,0.00
2013-1-13,10,6,2,3,0,-4,79,77,72,30.33,30.13,12,2,13,0.00
2013-1-14,14,9,5,6,3,0,83,75,63,30.49,30.33,13,1,13,0.00
2013-1-15,30,20,12,19,13,6,82,73,57,30.35,29.88,15,1,15,0.00
2013-1-16,37,27,12,32,20,2,91,75,47,30.28,29.69,14,2,17,0.00
2013-1-17,19,14,6,11,4,-2,77,65,56,30.45,30.27,12,1,12,0.00
2013-1-18,41,30,17,31,24,11,87,78,65,30.35,29.76,16,2,17,0.00
2013-1-19,39,24,3,31,17,-4,89,75,56,30.30,29.68,27,4,27,0.00
2013-1-20,9,3,-3,2,-5,-10,80,69,57,30.48,30.30,23,3,23,0.00
2013-1-21,-3,-6,-11,-10,-14,-18,73,68,61,30.45,30.36,18,4,18,0.00
2013-1-22,8,-2,-10,-1,-10,-17,74,68,60,30.51,30.34,10,1,10,0.00
2013-1-23,16,8,-4,9,-1,-15,82,66,52,30.69,30.23,17,2,18,0.00
2013-1-24,14,3,-6,3,-8,-16,66,60,50,30.76,30.25,14,2,14,0.00
2013-1-25,19,13,5,13,4,-3,78,68,60,30.38,30.02,21,3,21,0.00
2013-1-26,24,14,3,13,4,-3,79,66,54,30.42,30.17,14,2,14,0.00
2013-1-27,34,30,23,31,23,13,94,78,59,30.17,29.82,11,1,12,0.35
2013-1-28,36,34,31,33,31,30,96,91,86,29.91,29.65,13,1,13,0.00
2013-1-29,37,33,28,32,29,22,96,86,79,29.77,29.53,13,1,14,0.00
2013-1-30,28,18,8,22,11,2,82,76,70,29.82,29.67,19,3,19,0.00
2013-1-31,8,1,-8,3,-6,-15,80,73,66,30.38,29.82,22,4,22,0.00
2013-2-1,6,-3,-11,2,-10,-17,84,72,56,30.42,30.14,12,1,14,0.03
2013-2-2,14,7,2,8,1,-3,85,76,62,30.27,30.05,8,0,8,0.01
2013-2-3,16,11,4,9,5,-1,86,76,63,30.16,30.03,14,2,16,0.04
2013-2-4,18,12,5,12,4,0,89,71,54,30.14,29.81,9,0,9,0.02
2013-2-5,30,23,9,26,17,4,90,80,64,30.12,29.71,11,1,12,0.04
2013-2-6,26,16,5,20,12,0,87,82,77,30.16,29.98,8,1,12,0.01
2013-2-7,27,25,21,23,22,18,92,85,78,30.29,30.03,9,1,14,0.00
2013-2-8,26,23,21,21,18,15,85,79,72,30.41,30.25,10,1,13,0.00
2013-2-9,32,28,25,28,25,21,92,87,83,30.26,29.95,16,2,16,0.00
2013-2-10,34,30,28,32,29,25,96,93,87,29.95,29.29,13,2,15,0.33
2013-2-11,30,25,17,28,20,12,94,83,76,30.08,29.36,21,4,21,0.00
2013-2-12,34,25,16,25,19,11,86,77,64,30.09,29.84,15,2,16,0.00
2013-2-13,41,30,18,33,24,14,90,78,63,29.84,29.58,10,0,11,0.04
2013-2-14,34,27,14,32,20,5,93,77,54,30.22,29.60,14,1,14,0.04
2013-2-15,18,11,5,7,3,0,81,70,58,30.36,30.22,14,2,14,0.00
2013-2-16,19,10,2,8,4,-2,85,75,61,30.33,30.17,8,0,8,0.00
2013-2-17,32,22,9,24,15,4,85,75,64,30.18,29.66,18,2,18,0.00
2013-2-18,35,23,6,31,18,2,87,78,70,29.86,29.54,18,3,19,0.00
2013-2-19,6,4,-1,2,-4,-9,80,69,61,30.46,29.86,15,4,18,0.00
2013-2-20,18,7,-5,5,-2,-10,78,66,52,30.55,30.46,6,0,6,0.00
2013-2-21,23,16,7,13,7,1,78,69,56,30.51,30.13,11,2,11,0.00
2013-2-22,29,24,19,22,19,13,91,84,70,30.14,29.90,8,1,9,0.11
2013-2-23,29,23,17,23,18,13,87,82,72,30.01,29.89,10,1,10,0.00
2013-2-24,35,22,8,24,15,3,82,73,60,30.15,30.00,5,0,6,0.00
2013-2-25,38,31,20,25,22,15,83,70,58,30.14,30.05,6,0,7,0.00
2013-2-26,36,28,19,27,22,15,90,80,69,30.08,29.91,8,1,9,0.00
2013-2-27,41,32,28,26,25,22,83,73,53,30.06,29.90,14,1,16,0.00
2013-2-28,30,29,24,23,21,16,79,72,67,30.25,30.06,9,1,9,0.00
2013-3-1,30,25,18,19,16,12,77,69,59,30.40,30.25,9,1,9,0.00
2013-3-2,31,22,11,15,11,7,85,64,45,30.40,30.22,9,0,9,0.00
2013-3-3,32,26,19,14,12,9,67,54,40,30.22,30.01,16,3,16,0.00
2013-3-4,28,25,22,22,18,13,92,77,55,30.07,29.97,16,4,19,0.26
2013-3-5,32,26,22,26,22,17,92,86,78,30.35,30.01,9,0,9,0.21
2013-3-6,30,24,16,21,18,10,83,76,66,30.46,30.34,9,0,9,0.00
2013-3-7,30,21,10,20,14,3,85,73,63,30.43,30.33,13,2,13,0.00
2013-3-8,38,29,18,29,23,14,88,79,67,30.37,30.12,11,1,14,0.00
2013-3-9,39,36,33,36,34,28,95,92,78,30.12,29.71,11,1,12,0.46
2013-3-10,35,33,29,33,29,24,94,85,80,29.98,29.80,16,2,16,0.01
2013-3-11,32,28,22,24,22,16,83,78,67,29.89,29.78,12,2,12,0.00
2013-3-12,30,25,20,22,17,11,80,70,56,30.24,29.87,14,3,16,0.00
2013-3-13,31,23,13,19,14,9,87,71,56,30.43,30.24,11,1,11,0.00
2013-3-14,43,32,24,30,24,18,91,74,56,30.29,30.04,10,1,10,0.02
2013-3-15,34,32,25,31,28,22,93,87,75,30.04,29.83,7,1,10,0.10
2013-3-16,27,22,13,23,15,5,92,75,57,30.29,29.92,13,2,14,0.00
2013-3-17,27,18,8,21,8,1,77,65,54,30.33,29.91,16,4,19,0.00
2013-3-18,29,22,11,28,17,5,94,81,71,29.91,29.64,25,6,25,0.19
2013-3-19,22,13,6,9,3,-1,78,65,48,30.28,29.88,20,6,21,0.00
2013-3-20,22,13,5,7,2,-3,71,61,50,30.30,30.19,19,4,21,0.00
2013-3-21,28,18,5,11,6,-2,75,59,46,30.20,30.10,8,0,8,0.00
2013-3-22,37,25,11,18,12,4,76,59,40,30.15,30.08,8,0,9,0.00
2013-3-23,41,30,19,21,18,12,77,60,41,30.19,30.11,10,1,11,0.00
2013-3-24,34,30,27,25,23,20,86,73,58,30.14,30.01,10,1,15,0.00
2013-3-25,38,31,23,23,19,16,76,61,45,30.26,30.08,13,1,13,0.00
2013-3-26,41,32,25,25,21,18,78,65,47,30.33,30.26,12,1,12,0.00
2013-3-27,45,34,20,25,20,16,83,59,35,30.38,30.33,10,0,10,0.00
2013-3-28,45,35,24,28,23,18,80,64,45,30.37,30.30,8,0,10,0.00
2013-3-29,50,40,32,37,31,26,81,71,56,30.31,30.07,9,0,11,0.00
2013-3-30,54,44,36,44,38,31,90,77,66,30.08,29.86,13,1,13,0.14
2013-3-31,40,34,23,32,24,14,92,69,38,30.13,29.81,18,4,22,0.00
2013-4-1,35,26,18,17,14,11,76,62,44,30.31,30.13,15,2,17,0.00
2013-4-2,38,30,20,18,15,11,79,57,36,30.40,30.30,13,1,14,0.00
2013-4-3,46,35,22,32,23,15,79,61,39,30.43,30.08,15,1,15,0.00
2013-4-4,51,43,34,34,29,23,77,58,37,30.19,30.02,15,2,18,0.00
2013-4-5,42,34,27,32,25,18,93,71,43,30.25,29.90,16,2,19,0.05
2013-4-6,54,42,35,46,35,29,91,77,61,29.90,29.51,17,3,19,0.09
2013-4-7,47,41,37,40,35,31,92,78,63,29.95,29.76,10,1,10,0.07
2013-4-8,47,43,40,42,40,36,95,90,82,30.05,29.67,8,0,8,0.60
2013-4-9,42,37,31,36,32,28,93,82,62,30.18,29.97,15,3,15,0.40
2013-4-10,37,34,30,29,27,24,94,77,63,30.21,29.91,12,2,14,0.11
2013-4-11,35,32,30,32,30,26,95,90,71,29.93,29.70,15,2,15,0.63
2013-4-12,38,32,28,31,28,26,94,85,72,29.87,29.70,9,0,9,0.03
2013-4-13,40,34,29,28,27,24,90,75,58,29.98,29.86,12,2,14,0.00
2013-4-14,37,32,29,35,28,23,95,86,71,29.97,29.50,17,4,19,0.38
2013-4-15,39,36,32,34,30,26,90,78,70,30.01,29.54,30,4,30,0.00
2013-4-16,46,38,33,30,28,26,83,67,51,30.34,29.99,16,2,16,0.00
2013-4-17,40,37,34,35,30,27,94,78,69,30.34,29.91,14,2,14,0.13
2013-4-18,34,32,31,32,30,29,95,94,90,29.95,29.55,15,1,15,0.87
2013-4-19,38,33,30,29,26,20,95,77,56,30.03,29.52,20,2,22,0.03
2013-4-20,45,34,23,23,18,11,80,54,27,30.33,30.03,10,0,11,0.00
2013-4-21,50,40,32,46,36,18,93,83,50,30.34,30.02,17,2,18,0.09
2013-4-22,44,37,32,37,32,30,94,84,61,30.22,30.12,9,1,10,0.40
2013-4-23,42,35,28,30,26,19,94,71,45,30.19,30.09,11,1,15,0.01
2013-4-24,53,39,29,34,29,23,89,69,35,30.10,29.92,22,3,25,0.01
2013-4-25,53,42,32,33,30,26,89,63,36,30.23,30.00,14,2,15,0.00
2013-4-26,72,59,43,47,39,30,74,50,30,30.11,29.96,16,1,17,0.00
2013-4-27,76,61,42,47,38,32,72,46,24,30.12,29.87,11,0,14,0.00
2013-4-28,81,64,51,53,48,44,87,58,31,29.87,29.60,18,0,18,0.05
2013-4-29,73,62,48,57,47,36,87,60,33,29.79,29.51,13,0,13,0.00
2013-4-30,69,64,56,59,46,27,81,54,23,29.95,29.37,22,2,22,0.00
2013-5-1,56,41,34,38,34,29,93,78,47,30.49,29.94,13,1,14,0.33
2013-5-2,48,40,36,30,27,25,74,61,43,30.56,30.43,13,2,14,0.00
2013-5-3,37,34,32,33,29,24,91,81,62,30.43,30.18,10,2,13,0.05
2013-5-4,49,39,32,42,36,30,94,87,74,30.20,30.13,8,1,11,0.01
2013-5-5,64,50,38,49,42,35,91,75,55,30.19,30.07,7,0,7,0.00
2013-5-6,75,62,44,51,46,42,92,61,38,30.11,29.99,8,0,10,0.00
2013-5-7,80,65,49,53,48,45,94,59,31,30.04,29.92,9,0,9,0.00
2013-5-8,76,64,57,57,52,47,92,66,37,29.98,29.90,13,0,13,0.14
2013-5-9,59,54,43,55,48,29,91,80,59,30.10,29.92,14,1,14,0.01
2013-5-10,68,52,36,46,29,20,76,45,18,30.12,29.87,10,0,10,0.01
2013-5-11,55,47,38,42,27,20,68,47,28,30.19,29.86,26,3,26,0.00
2013-5-12,59,47,33,28,22,16,70,41,19,30.24,30.09,12,1,12,0.00
2013-5-13,72,56,37,48,35,23,78,48,30,30.11,29.63,13,1,16,0.00
2013-5-14,99,73,51,58,46,31,83,45,15,29.66,29.41,21,2,22,0.00
2013-5-15,80,67,53,51,46,42,72,50,27,29.88,29.64,12,1,15,0.00
2013-5-16,82,69,50,50,44,31,85,45,24,29.89,29.80,14,0,14,0.01
2013-5-17,65,57,54,55,52,41,96,83,44,29.96,29.85,17,2,17,0.43
2013-5-18,80,65,55,67,60,54,98,84,59,29.98,29.75,12,1,13,1.80
2013-5-19,80,68,63,69,64,61,97,86,63,29.77,29.50,13,0,14,1.04
2013-5-20,73,66,58,63,60,56,97,82,62,29.54,29.46,14,1,14,0.25
2013-5-21,60,56,47,58,54,46,97,95,92,29.69,29.48,6,0,8,0.22
2013-5-22,52,48,44,51,47,43,98,95,82,29.99,29.68,12,0,13,0.14
2013-5-23,64,53,43,45,37,29,90,59,32,30.34,29.99,11,0,12,0.01
2013-5-24,68,54,39,52,40,29,92,61,36,30.38,30.15,15,1,15,0.22
2013-5-25,59,55,52,51,48,43,93,77,65,30.24,30.19,18,3,18,0.02
2013-5-26,57,54,52,49,44,38,76,68,54,30.21,30.01,17,2,22,0.00
2013-5-27,60,56,53,55,52,48,96,86,73,30.04,29.81,9,0,9,0.11
2013-5-28,60,55,52,57,54,51,98,94,89,29.81,29.70,10,0,10,0.05
2013-5-29,73,64,53,70,61,52,98,90,80,29.80,29.60,12,1,12,0.34
2013-5-30,75,68,63,65,62,58,86,81,65,29.65,29.47,12,2,16,0.11
2013-5-31,78,68,62,60,56,51,86,67,42,29.52,29.47,18,1,19,0.01
2013-6-1,76,60,51,60,53,44,86,78,50,29.92,29.50,12,1,14,0.10
2013-6-2,67,57,47,45,43,39,85,61,38,30.07,29.92,11,1,11,0.00
2013-6-3,71,59,45,48,44,40,87,60,36,30.06,29.90,11,1,11,0.00
2013-6-4,62,59,54,53,50,45,86,73,54,30.05,29.95,15,2,17,0.02
2013-6-5,65,56,53,58,51,48,86,84,77,30.03,29.92,10,0,14,0.20
2013-6-6,56,53,50,52,49,46,87,86,84,30.03,29.95,7,0,7,0.00
2013-6-7,65,55,52,54,50,48,87,84,62,30.04,29.89,3,0,6,0.00
2013-6-8,70,62,53,57,53,48,87,74,54,29.90,29.85,10,1,10,0.00
2013-6-9,64,60,56,60,55,50,86,84,78,29.87,29.74,22,2,22,0.46
2013-6-10,77,66,59,65,59,53,87,78,61,29.83,29.78,8,0,9,0.00
2013-6-11,76,66,57,68,60,51,86,82,73,29.87,29.77,7,0,7,0.00
2013-6-12,71,65,60,65,59,54,87,81,68,29.91,29.73,8,0,8,1.71
2013-6-13,79,69,57,59,55,51,82,63,43,30.07,29.90,8,1,8,0.00
2013-6-14,78,69,56,62,58,51,85,68,55,30.05,29.83,16,2,18,0.02
2013-6-15,75,68,63,69,63,57,86,83,74,29.86,29.81,13,0,15,0.03
2013-6-16,88,71,56,62,55,45,88,62,24,29.90,29.81,12,1,15,0.02
2013-6-17,84,71,58,60,57,53,86,63,37,29.97,29.83,14,1,14,0.00
2013-6-18,77,66,56,61,55,49,81,69,50,30.05,29.97,10,1,11,0.00
2013-6-19,84,72,58,65,58,54,86,65,43,30.03,29.89,9,1,10,0.00
2013-6-20,88,79,70,68,64,59,76,61,46,29.95,29.80,11,1,11,0.00
2013-6-21,81,73,62,70,64,56,85,75,57,30.03,29.69,23,2,23,1.69
2013-6-22,80,71,64,72,64,58,86,81,71,29.96,29.78,10,1,23,0.70
2013-6-23,84,75,67,71,67,62,86,77,55,29.84,29.64,16,2,17,0.60
2013-6-24,82,72,63,71,65,58,89,80,63,29.87,29.76,11,1,13,0.00
2013-6-25,85,75,64,73,68,60,88,79,63,29.79,29.66,16,2,16,0.00
2013-6-26,90,79,71,77,70,64,88,74,51,29.76,29.61,14,1,15,0.00
2013-6-27,88,78,67,69,62,53,88,62,32,29.77,29.74,15,1,17,0.00
2013-6-28,80,71,64,65,60,57,87,68,54,29.77,29.71,11,2,17,0.20
2013-6-29,77,68,61,64,58,50,88,71,50,29.95,29.71,9,1,13,0.15
2013-6-30,82,69,57,59,54,50,87,62,38,30.08,29.95,10,1,10,0.00
2013-7-1,84,72,61,64,58,54,87,63,40,30.15,30.08,8,0,8,0.00
2013-7-2,84,72,59,59,56,51,86,60,35,30.12,30.01,7,0,9,0.00
2013-7-3,84,71,58,65,56,50,87,64,33,30.03,29.91,8,0,9,0.00
2013-7-4,88,76,64,66,59,54,79,57,34,29.93,29.81,9,0,9,0.00
2013-7-5,86,78,69,68,62,57,73,59,45,29.85,29.74,13,1,13,0.00
2013-7-6,89,80,73,71,65,61,71,61,49,29.82,29.74,8,1,8,0.00
2013-7-7,89,80,72,74,69,65,85,68,54,29.83,29.74,9,1,9,0.00
2013-7-8,86,76,67,73,68,63,87,76,58,29.95,29.83,6,0,6,0.00
2013-7-9,84,77,69,73,69,63,87,78,65,29.90,29.68,21,2,21,0.45
2013-7-10,80,72,62,65,59,55,84,65,44,30.01,29.87,11,1,11,0.00
2013-7-11,83,73,60,64,59,56,88,63,40,30.08,29.93,9,1,9,0.00
2013-7-12,87,77,69,66,61,57,72,58,45,29.97,29.84,10,2,17,0.00
2013-7-13,77,72,65,70,64,58,88,77,60,30.04,29.85,14,2,14,2.48
2013-7-14,83,75,69,69,66,61,86,73,56,30.14,30.01,8,1,8,0.00
2013-7-15,86,77,67,71,68,62,87,73,52,30.19,30.11,7,0,8,0.00
2013-7-16,91,82,74,76,72,69,87,73,55,30.16,30.11,12,1,12,0.00
2013-7-17,92,82,72,76,72,67,87,72,49,30.19,30.05,15,1,15,0.00
2013-7-18,92,83,74,77,72,69,87,70,52,30.05,29.71,15,1,15,0.00
2013-7-19,84,79,70,71,66,59,85,65,47,29.86,29.66,17,2,17,0.00
2013-7-20,80,71,64,68,62,57,87,74,53,29.92,29.82,9,0,13,0.00
2013-7-21,79,70,58,69,62,51,88,75,64,29.93,29.75,10,1,11,0.48
2013-7-22,86,75,67,74,65,56,88,74,51,29.82,29.63,15,2,15,0.00
2013-7-23,77,68,60,59,56,54,86,66,46,29.99,29.81,8,1,9,0.00
2013-7-24,78,66,59,63,58,53,87,75,54,30.05,29.93,8,0,8,0.00
2013-7-25,80,71,59,70,62,55,88,74,54,29.95,29.87,9,1,11,0.04
2013-7-26,70,64,57,65,56,48,88,76,62,30.05,29.86,17,2,17,0.03
2013-7-27,65,58,51,53,49,46,88,73,55,30.06,29.92,15,1,15,0.00
2013-7-28,73,61,53,56,51,46,86,70,53,30.04,29.94,11,1,11,0.00
2013-7-29,76,65,52,60,55,48,89,72,50,30.11,30.04,7,0,7,0.01
2013-7-30,70,66,62,65,62,58,89,87,78,30.07,30.01,5,0,5,0.04
2013-7-31,80,66,59,69,60,54,90,81,52,30.05,29.96,15,1,16,0.08
2013-8-1,81,68,54,62,57,51,90,70,43,30.01,29.83,6,0,8,0.00
2013-8-2,76,68,60,62,57,53,87,70,48,30.01,29.81,7,0,7,0.00
2013-8-3,78,67,55,60,54,51,90,67,42,30.17,30.01,8,0,8,0.00
2013-8-4,72,63,54,60,55,51,89,75,57,30.20,29.97,7,0,8,0.00
2013-8-5,78,67,60,70,62,56,90,84,71,30.00,29.75,10,0,10,1.00
2013-8-6,83,68,57,70,61,53,90,80,60,29.81,29.62,13,1,15,0.56
2013-8-7,74,65,59,61,56,51,91,73,46,30.00,29.75,10,1,10,0.00
2013-8-8,74,64,55,63,58,52,91,82,58,30.03,29.96,10,0,10,0.01
2013-8-9,75,66,58,64,56,51,92,70,49,30.09,29.97,11,1,11,0.00
2013-8-10,76,67,59,60,56,50,87,68,45,30.16,30.05,7,0,7,0.00
2013-8-11,79,69,64,67,62,58,90,79,64,30.06,29.95,5,0,5,0.00
2013-8-12,78,70,60,63,59,55,91,71,48,30.03,29.96,11,1,11,0.00
2013-8-13,75,65,55,59,53,48,91,67,42,30.16,30.03,7,0,8,0.00
2013-8-14,77,65,53,61,54,50,91,70,42,30.17,30.07,13,1,13,0.00
2013-8-15,77,65,53,64,56,50,91,76,52,30.11,30.05,8,0,8,0.00
2013-8-16,79,68,55,65,58,52,91,72,46,30.17,30.10,8,0,11,0.00
2013-8-17,79,68,56,63,57,53,91,71,47,30.17,30.07,12,1,12,0.00
2013-8-18,81,70,58,65,59,54,90,68,49,30.11,29.96,10,1,10,0.00
2013-8-19,84,73,64,72,65,59,86,75,62,29.99,29.85,8,0,8,0.00
2013-8-20,86,78,70,74,70,65,87,77,66,29.87,29.80,7,1,10,0.00
2013-8-21,84,78,71,77,72,63,90,82,70,29.95,29.78,8,0,8,0.00
2013-8-22,83,74,66,64,57,52,77,56,38,30.08,29.95,7,0,9,0.00
2013-8-23,84,73,60,69,61,52,82,68,56,30.11,29.99,10,1,10,0.00
2013-8-24,87,78,71,74,70,66,84,75,60,30.02,29.88,12,2,13,0.00
2013-8-25,92,84,76,78,74,70,84,72,59,29.95,29.87,10,1,11,0.00
2013-8-26,91,84,75,79,75,72,89,77,62,29.92,29.77,7,1,8,0.00
2013-8-27,91,83,74,80,75,71,89,79,65,29.86,29.73,7,0,7,0.00
2013-8-28,87,78,70,76,72,66,90,81,62,29.95,29.85,8,0,8,0.00
2013-8-29,90,82,74,77,73,69,90,76,53,29.94,29.79,9,1,9,0.00
2013-8-30,82,76,70,72,68,63,89,78,63,29.88,29.76,10,1,10,0.00
2013-8-31,86,73,64,72,66,61,90,79,59,29.85,29.67,9,0,10,0.03
2013-9-1,72,68,61,65,61,54,89,80,68,29.95,29.69,10,1,13,0.00
2013-9-2,64,58,53,56,53,50,91,82,72,30.08,29.95,7,0,7,0.00
2013-9-3,76,62,47,62,55,44,91,79,56,30.09,29.98,8,0,8,0.00
2013-9-4,85,70,57,71,62,53,91,76,52,30.11,29.98,5,0,6,0.00
2013-9-5,82,71,62,69,62,54,86,73,59,30.18,30.05,11,1,11,0.00
2013-9-6,89,78,69,71,68,65,90,73,50,30.06,29.81,12,0,12,0.07
2013-9-7,91,79,67,74,68,62,90,71,47,29.96,29.80,9,0,12,0.00
2013-9-8,76,70,65,66,63,58,84,78,70,30.00,29.84,11,2,11,0.00
2013-9-9,90,77,69,76,69,65,90,78,55,29.84,29.57,12,1,12,0.00
2013-9-10,78,72,67,70,66,62,90,80,66,29.95,29.71,10,1,10,0.01
2013-9-11,83,72,61,66,59,50,90,67,38,30.03,29.94,13,1,13,0.00
2013-9-12,72,64,55,58,51,47,85,64,44,30.20,30.02,10,1,11,0.00
2013-9-13,68,58,46,51,47,44,91,70,46,30.26,30.07,8,0,8,0.00
2013-9-14,71,58,48,57,50,44,90,76,50,30.07,29.87,12,1,12,0.41
2013-9-15,64,57,49,58,53,46,91,86,75,30.31,29.85,8,1,10,0.42
2013-9-16,64,53,41,49,45,39,92,75,49,30.40,30.24,11,1,11,0.01
2013-9-17,66,56,48,56,50,44,90,80,68,30.25,29.92,15,2,15,0.03
2013-9-18,76,67,59,70,63,55,90,87,82,29.92,29.65,10,1,12,0.05
2013-9-19,75,69,63,70,65,55,91,87,76,29.78,29.60,18,1,18,0.25
2013-9-20,64,57,51,55,52,47,91,83,66,29.92,29.75,13,1,15,0.02
2013-9-21,62,53,46,51,47,43,92,81,62,29.99,29.90,9,0,9,0.00
2013-9-22,73,59,46,58,51,43,92,77,55,29.96,29.82,15,2,16,0.00
2013-9-23,72,62,54,56,52,49,85,70,51,29.92,29.83,15,2,18,0.00
2013-9-24,74,61,51,58,53,48,90,75,50,29.95,29.88,11,1,11,0.00
2013-9-25,72,61,50,57,52,47,91,74,52,29.95,29.83,12,1,13,0.00
2013-9-26,80,67,56,62,57,51,86,71,53,29.89,29.78,18,2,18,0.00
2013-9-27,82,73,66,66,62,60,82,70,52,29.87,29.75,17,2,18,0.00
2013-9-28,72,60,46,62,55,44,91,81,68,29.92,29.59,21,2,22,0.15
2013-9-29,74,58,42,52,46,40,92,67,37,29.96,29.77,11,1,11,0.00
2013-9-30,78,67,59,56,51,46,68,57,43,29.78,29.56,11,1,16,0.00
2013-10-1,73,65,51,55,46,36,73,54,27,29.96,29.55,16,1,19,0.00
2013-10-2,74,58,44,55,45,39,91,67,31,30.02,29.80,14,1,16,0.83
2013-10-3,59,57,55,55,53,52,91,88,86,29.91,29.80,11,0,13,0.14
2013-10-4,57,56,54,55,52,50,92,90,87,29.96,29.77,17,1,18,0.40
2013-10-5,59,53,42,55,49,40,92,87,69,29.83,29.72,21,1,21,0.05
2013-10-6,53,46,39,51,43,36,92,90,88,29.85,29.68,8,0,9,0.06
2013-10-7,63,51,41,50,44,38,93,80,47,29.97,29.83,9,0,9,0.01
2013-10-8,75,61,46,51,47,43,91,62,37,29.96,29.80,9,1,10,0.00
2013-10-9,74,64,56,55,51,48,78,62,45,30.00,29.90,9,1,10,0.00
2013-10-10,75,63,51,58,51,46,86,67,45,30.00,29.84,13,1,15,0.00
2013-10-11,72,65,56,62,55,51,89,71,54,29.84,29.59,22,3,25,0.05
2013-10-12,58,49,41,54,43,38,90,80,66,30.18,29.67,24,2,24,0.00
2013-10-13,57,46,34,42,38,32,91,75,45,30.44,30.18,7,0,7,0.00
2013-10-14,53,47,40,47,40,37,90,78,59,30.41,29.94,15,2,16,0.58
2013-10-15,53,49,45,49,46,42,90,88,86,29.94,29.66,21,2,21,0.92
2013-10-16,52,45,37,43,40,34,91,84,62,29.96,29.82,11,1,11,0.02
2013-10-17,57,45,36,45,40,34,92,84,56,29.89,29.77,11,1,11,0.09
2013-10-18,51,42,36,41,37,32,92,82,51,29.99,29.85,13,1,13,0.09
2013-10-19,45,38,32,41,35,29,92,88,78,29.85,29.70,12,1,12,0.02
2013-10-20,45,37,30,42,34,28,92,89,78,29.90,29.62,11,1,11,0.05
2013-10-21,38,34,27,33,25,23,89,71,56,29.98,29.90,17,2,17,0.01
2013-10-22,40,33,24,33,28,22,92,83,69,30.06,29.98,6,0,7,0.00
2013-10-23,39,34,32,31,26,21,89,72,55,30.13,30.02,11,1,12,0.00
2013-10-24,43,36,32,32,28,22,85,70,56,30.34,30.13,10,1,10,0.00
2013-10-25,56,43,25,42,34,23,92,74,55,30.34,29.80,16,2,16,0.00
2013-10-26,50,42,36,41,31,28,76,65,52,30.11,29.80,13,2,13,0.00
2013-10-27,56,41,28,36,31,25,90,69,46,30.14,29.83,11,1,11,0.00
2013-10-28,42,36,30,30,26,22,85,66,47,30.44,30.14,10,1,12,0.00
2013-10-29,41,37,30,36,30,24,91,75,69,30.42,30.10,10,1,11,0.03
2013-10-30,48,44,38,44,40,36,91,88,87,30.10,29.67,10,0,12,0.10
2013-10-31,49,42,39,45,39,37,92,90,87,29.67,29.40,12,2,12,0.04
2013-11-1,51,43,37,39,37,33,92,81,62,29.87,29.42,13,1,13,0.00
2013-11-2,48,39,33,36,33,30,91,78,55,30.10,29.86,7,1,8,0.00
2013-11-3,54,44,33,37,34,30,92,70,46,30.12,29.88,21,2,25,0.00
2013-11-4,48,46,33,43,38,30,91,75,62,30.15,29.82,15,2,15,0.15
2013-11-5,43,37,28,36,30,26,92,77,55,30.26,30.10,8,0,8,0.01
2013-11-6,36,32,28,30,28,25,92,83,70,30.19,30.04,4,2,12,0.06
2013-11-7,35,30,25,31,27,23,92,89,83,30.27,30.19,13,1,13,0.07
2013-11-8,45,35,23,40,29,21,92,78,56,30.23,29.62,21,2,21,0.12
2013-11-9,44,40,34,40,33,26,87,76,60,30.22,29.64,30,6,30,0.00
2013-11-10,41,37,32,32,30,27,81,75,65,30.34,30.10,9,2,14,0.00
2013-11-11,37,24,15,32,14,8,83,66,50,30.77,30.13,17,2,17,0.00
2013-11-12,28,19,12,14,10,7,84,70,50,30.84,30.49,8,1,12,0.00
2013-11-13,51,35,19,36,25,14,79,66,53,30.49,29.89,18,1,18,0.00
2013-11-14,52,40,32,40,33,28,90,78,64,29.90,29.76,10,1,10,0.00
2013-11-15,54,41,28,41,34,26,92,78,55,29.86,29.64,8,0,8,0.00
2013-11-16,48,44,41,44,40,35,91,87,73,29.64,29.22,12,1,14,0.15
2013-11-17,44,39,31,39,34,25,92,85,77,29.85,29.31,22,4,22,0.00
2013-11-18,35,29,22,25,22,19,89,74,60,30.29,29.84,19,3,22,0.00
2013-11-19,46,35,21,32,26,19,91,71,51,30.29,29.93,15,2,17,0.00
2013-11-20,44,41,37,34,31,27,88,68,53,30.04,29.89,15,2,15,0.00
2013-11-21,38,30,23,35,26,16,91,85,72,30.55,30.04,13,2,13,0.00
2013-11-22,33,22,12,16,12,3,87,66,37,30.69,30.49,16,2,16,0.00
2013-11-23,18,11,7,5,3,1,82,69,48,30.90,30.68,14,2,14,0.00
2013-11-24,30,19,5,17,10,1,85,68,52,30.78,30.04,13,1,15,0.00
2013-11-25,38,33,27,29,24,17,85,70,60,30.11,29.94,17,3,17,0.01
2013-11-26,30,20,14,22,9,3,73,60,50,30.43,30.10,20,3,20,0.00
2013-11-27,23,15,8,11,8,4,88,72,55,30.44,30.14,9,0,9,0.00
2013-11-28,27,21,12,15,12,8,85,70,58,30.57,30.12,13,1,13,0.00
2013-11-29,32,22,10,22,16,7,91,76,58,30.57,30.17,11,1,11,0.00
2013-11-30,41,31,23,29,25,20,91,76,61,30.19,30.06,7,0,7,0.00
2013-12-1,32,27,20,26,22,18,92,84,75,30.22,29.94,3,0,5,0.00
2013-12-2,37,32,26,33,29,23,92,88,80,29.94,29.59,13,2,14,0.04
2013-12-3,35,34,31,33,31,29,92,91,88,29.79,29.59,7,1,7,0.00
2013-12-4,31,26,11,29,24,8,93,91,85,29.79,29.49,20,2,21,0.00
2013-12-5,11,5,-3,8,0,-6,86,82,76,30.43,29.76,22,4,24,0.00
2013-12-6,2,-4,-8,-4,-8,-13,86,81,75,30.75,30.43,13,1,13,0.00
2013-12-7,-1,-8,-16,-7,-12,-19,85,80,72,30.83,30.68,11,0,11,0.00
2013-12-8,15,7,-5,10,3,-8,87,85,80,30.68,30.10,8,1,9,0.00
2013-12-9,14,0,-4,9,-4,-9,85,79,73,30.19,29.94,18,2,21,0.00
2013-12-10,14,7,2,10,2,-3,89,79,73,30.37,29.84,19,2,19,0.00
2013-12-11,5,-3,-7,-2,-9,-12,78,74,68,30.65,30.37,14,1,14,0.00
2013-12-12,20,13,2,13,7,-4,80,75,70,30.40,30.20,9,0,9,0.00
2013-12-13,19,14,11,12,8,7,85,79,74,30.34,30.17,8,2,8,0.00
2013-12-14,16,10,0,10,5,-5,86,80,73,30.34,30.15,12,1,13,0.00
2013-12-15,5,2,-1,-3,-6,-8,77,70,60,30.24,30.17,8,1,8,0.00
2013-12-16,18,10,2,15,5,-6,90,80,69,30.20,29.98,12,1,12,0.00
2013-12-17,32,23,10,28,17,5,92,77,66,30.16,29.94,18,4,20,0.00
2013-12-18,36,24,8,28,18,3,89,78,69,30.11,29.68,12,1,13,0.00
2013-12-19,28,18,15,23,13,9,87,79,72,30.10,29.84,8,2,9,0.00
2013-12-20,21,17,13,15,13,10,87,82,75,30.08,29.90,6,0,7,0.00
2013-12-21,23,20,16,16,14,12,84,79,73,30.04,29.90,5,0,5,0.00
2013-12-22,19,14,3,14,9,-2,84,81,75,30.31,29.99,14,2,14,0.00
2013-12-23,3,-2,-7,-2,-8,-14,81,74,67,30.61,30.31,10,1,14,0.00
2013-12-24,11,0,-14,6,-7,-19,86,74,54,30.59,30.22,12,0,12,0.00
2013-12-25,29,18,10,24,13,6,87,80,68,30.23,30.10,18,1,18,0.00
2013-12-26,28,20,11,24,16,7,87,83,78,30.20,30.11,4,0,4,0.00
2013-12-27,39,33,16,31,28,11,89,81,73,30.21,29.93,17,2,17,0.00
2013-12-28,45,32,18,32,26,14,91,81,60,30.04,29.65,15,1,23,0.00
2013-12-29,18,-1,-10,14,-9,-18,82,67,56,30.39,30.04,17,2,17,0.00
2013-12-30,5,-4,-13,-1,-9,-18,82,77,70,30.39,30.27,7,0,7,0.00
2013-12-31,2,-4,-8,-5,-10,-14,80,75,66,30.51,30.30,5,0,6,0.00
2014-1-1,2,-3,-8,-6,-10,-14,74,71,66,30.59,30.49,4,0,4,0.00
2014-1-2,3,-3,-9,-7,-12,-16,74,64,47,30.60,30.47,6,0,6,0.00